STARLINK-37659, 69139

Orbit data source: Space-Track

STARLINK-37659, 69139 is a payload satellite owned by SpaceX/Seattle (US) in SSO that was launched on Wed, 20 May 2026 UTC via an FALCON 9 launch vehicle from the Air Force Western Test Range (AFWTR). Payload-class satellites include a variety of spacecraft equipped with specific instruments for various scientific and technological missions. These include communications satellites like Starlink; space stations such as the ISS; scientific satellites like the Hubble; Earth observation satellites from companies like Planet Labs, Umbra, and HawkEye 360; GPS; miniature CubeSats for education and research; and military/defense satellites.

Loading next visibility...
Identifier
69139, 2026-110R
Orbit
SSO
Country
Flag of USUS
Related business
Manufacturer
SpaceX/Seattle
Mission
Operational spacecraft
Bus & Motor
STARLINK V2MO, Unknown motor
Mass
575 kg wet, ~530 kg dry
Launch date (UTC)
2026-05-20 (1 month ago)
Launch vehicle
FALCON 9
Launch site
Air Force Western Test Range (AFWTR)
Object type
Payload
Rocket body
Debris
Shape & HBR
Unknown shape, 14.5 m
Radar Cross Section
Large (>1 m²)

Expand to show TLE details & history
Last TLE update: 1 day ago

TLE from 1 day ago
0 STARLINK-37659
1 69139U 26110R   26170.50544965  .00036024  00000-0  66023-3 0  9997
2 69139  97.2836   6.8719 0002466 115.2099 244.9408 15.49220076  5968
Epoch: 2026-06-19T12:07Z
TLE epoch observation values (Epoch: 2026-06-19T12:07:50.849Z)
Latitude
-0.00006°
Longitude
-82.82342°
Altitude
422.85 km
Speed
7.657 km/s
True Right ascension
00h 27m 29s
True Declination
0° 00' 00"
Sunlit
Object was in daylight at epoch
Visualization orbit readout
Latitude
Unknown
Longitude
Unknown
Altitude
Unknown
Speed
Unknown
Apparent Right ascension
Unknown
Apparent Declination
Unknown
Sunlit
N/A
Visualization observer readout
Local Sidereal Time
07:17:31
Azimuth
Unknown
Elevation
Unknown
Doppler factor
Unknown
Orbital elements
Apogee altitude
417.604 km
Perigee altitude
414.253 km
Semi-major axis
6,794.065 km
Eccentricity
0.00025
Inclination
97.2836°
RAAN
6.8719°
Arg. of periapsis
115.2099°
True anomaly
244.9152°
Mean anomaly
244.9408°
Eccentric anomaly
244.928°
Mean motion
3.87569 °/min
Orbital period
92.89 mins
BSTAR
0.00066023
Loading maneuver chart data...
Computing Atmospheric mass density...
Loading historical data...
Loading historical data...
Loading historical data...
Loading historical data...
Loading historical data...
Loading historical data...
Loading historical data...

Documentation

Showing up to 5 results
|